Regional Weather Roundup
Issued by NWS Albany, NY

Home | Current Version | Previous Version | Text Only | Print | Product List | Glossary On
Versions: 1 2 3 4 5 6 7 8 9 10 11 12 13 14 15 16 17 18 19 20 21 22 23 24 25 26 27 28 29 30 31 32 33 34 35 36 37 38 39 40 41 42 43 44 45 46 47 48 49 50
000
ASUS41 KALY 010810
RWRALY

NEW YORK STATE HOURLY WEATHER ROUNDUP
NATIONAL WEATHER SERVICE ALBANY NY
300 AM EST SUN FEB 01 2015

NOTE: "FAIR" INDICATES FEW OR NO CLOUDS BELOW 12,000 FEET WITH NO
SIGNIFICANT WEATHER AND/OR NO OBSTRUCTIONS TO VISIBILITY.

NYZ032-033-038>043-046>054-057>066-NYZ062>081-010900-
EAST


CITY           SKY/WX    TMP DP  RH WIND       PRES   REMARKS
ALBANY         FLURRIES  14   7  73 CALM      30.13F
GLENS FALLS    CLOUDY     1  -6  72 CALM      30.12S
POUGHKEEPSIE   CLOUDY    11   2  67 CALM      30.16S
MONTGOMERY     CLOUDY    17   7  64 SW15      30.15S WCI   2
WHITE PLAINS   CLEAR     17   6  62 W5        30.14S WCI  10
ISLIP          CLEAR     14   3  61 CALM      30.17S
NEW YORK CITY  PTCLDY    23   8  52 W6        30.20S WCI  16
CENTRAL PARK   CLEAR     22   6  50 VRB3      30.21S
$$

NYZ005>009-017-018-044>046-055-056-010900-
CENTRAL


CITY           SKY/WX    TMP DP  RH WIND       PRES   REMARKS
FULTON         LGT SNOW  23  18  81 SW7       30.11S WCI  15
SYRACUSE       FLURRIES  23  19  85 W15       30.11S WCI  10
ROME           FLURRIES  12   9  87 CALM      30.14F
ELMIRA         CLOUDY    17  11  77 CALM      30.14S
BINGHAMTON     CLOUDY    16   9  74 SW9       30.06F WCI   4
MONTICELLO     CLOUDY    14   9  79 W7        30.08S WCI   4
$$

NYZ026>034-041>043-010900-
NORTH


CITY           SKY/WX    TMP DP  RH WIND       PRES   REMARKS
WATERTOWN      LGT SNOW  22  16  78 W7        30.13R WCI  13
FORT DRUM      NOT AVBL
MASSENA        CLOUDY     8   4  83 W5        30.16R WCI   0
SARANAC LAKE   LGT SNOW   7   4  87 W5        29.97R FOG     WCI  -2
PLATTSBURGH    CLOUDY     9   4  80 CALM      30.10S
$$

NYZ001>004-010>016-019>021-010900-
WEST


CITY           SKY/WX    TMP DP  RH WIND       PRES   REMARKS
NIAGARA FALLS  CLOUDY    27  22  81 W10       30.15S WCI  17
BUFFALO        FLURRIES  27  22  81 W8        30.15S WCI  19
DUNKIRK        CLOUDY    29  22  75 W8        30.17R WCI  21
JAMESTOWN      CLOUDY    21  18  86 SW6       30.10S WCI  14
WELLSVILLE     CLOUDY    21  16  81 W6        30.08S WCI  13
ROCHESTER      CLOUDY    28  21  75 W9        30.14S WCI  19
PENN YAN       CLOUDY    28  20  71 W10       30.12R WCI  19
$$

             KEY
       WCI = WIND CHILL INDEX
       VSB = VISIBILITY
       HX  = HEAT INDEX
$$



USA.gov is the U.S. government's official web portal to all federal, state and local government web resources and services.